Overview Statistics Trail Chart Weather Telemetry Raw packets
 

This is the latest recevied weather packets stored in our database for station/object E27ARV-1. If no packets are shown the sender has not sent any weather packets the latest 10 day(s).

<< 44 45 46 47 48 49 50 >>
Time Temp. Humidity Pressure Rain* Wind** Luminosity Snow
1788002664 25.56° C 100% 1007 hPa - - 0 W/m² -
1788000125 24.44° C 100% 1006 hPa - - 0 W/m² -
1787999524 25° C 100% 1006 hPa - - 0 W/m² -
1787999338 25° C 100% 1006 hPa - - 0 W/m² -
1787997447 27.78° C 100% 1006 hPa - - 0 W/m² -
1787997313 27.78° C 100% 1006 hPa - - 0 W/m² -
1787995499 27.78° C 100% 1005 hPa - - 0 W/m² -
1787994894 26.67° C 100% 1008 hPa - - 0 W/m² -
1787993837 26.67° C 100% 1005 hPa - - 0 W/m² -
1787993189 26.11° C 100% 1006 hPa - - 0 W/m² -
1787991511 26.67° C 100% 1006 hPa - - 0 W/m² -
1787990832 26.11° C 100% 1004 hPa - - 0 W/m² -
1787990205 26.67° C 100% 1004 hPa - - 0 W/m² -
1787989578 27.78° C 100% 1003 hPa - - 0 W/m² -
1787987923 31.11° C 100% 1006 hPa - - 0 W/m² -
1787985144 29.44° C 100% 1007 hPa - - 0 W/m² -
1787984205 29.44° C 100% 1007 hPa - - 0 W/m² -
1787983880 29.44° C 100% 1007 hPa - - 0 W/m² -
1787982883 28.33° C 100% 1007 hPa - - 0 W/m² -
1787981652 30° C 100% 1007 hPa - - 0 W/m² -
1787981028 33.33° C 100% 1007 hPa - - 0 W/m² -
1787979803 32.78° C 100% 1008 hPa - - 0 W/m² -
1787979532 33.33° C 100% 1008 hPa - - 0 W/m² -
1787978522 33.33° C 100% 1008 hPa - - 0 W/m² -
1787977906 33.33° C 100% 1008 hPa - - 0 W/m² -

* Rain since midnight (hover to see other rain measurements)
** Current wind speed in m/s (hover to see current wind gust speed)